Volver al catálogo

STARLINK-37136

ActivoComunicacionesVLEO
NORAD 68347·PAYLOAD·🇺🇸 United States

Lanzado Mar 22, 2026 desde Cape Canaveral Space Force Station

Loading…

Próximos Pases (próximas 24 horas)

TLE

ActualizadoSource: CelesTrak SupGP

Época: Sep 15, 2026, 03:36 UTC

1 68347C 26059AC  26258.15048611 -.00023381  00000+0 -69088-3 0  2589
2 68347  53.1584 186.3838 0001336  83.8695 108.5330 15.34398866    19

Sigue STARLINK-37136 en tiempo real con AllMySat

Download on the App Store